Location: Leuk
(46.3174°N, 7.6341°E)
Time: 15:48:22
(UTC+00:00)

ATLAS 3B R/B - Pass Details

Date: 09 March 2021
Orbit: 1006 x 1189 km, 63.8° (Epoch: 13 April)

Event Time Altitude Azimuth Distance (km) Brightness Sun altitude
Rises 04:59:26 0° 321° (NW) 3,865 5.3 -10.2°
Reaches altitude 10° 05:02:03 10° 323° (NW) 2,932 4.7 -9.7°
Maximum altitude 05:09:03 79° 50° (NE) 1,145 3.0 -8.5°
Drops below altitude 10° 05:16:21 10° 138° (SE) 3,049 5.7 -7.3°
Sets 05:19:06 0° 139° (SE) 4,027 6.4 -6.8°
